Waarnemingen

Advertentie
Mijn weer
Torino/Caselle, Italië (16059): temperatuur & dauwpunt: 13.04.2018 23:00:00 - 19.04.2018 23:00:00 (CEST)Torino/Caselle, Italië (16059): windsnelheid: 13.04.2018 23:00:00 - 19.04.2018 23:00:00 (CEST)Torino/Caselle, Italië (16059): windrichting: 13.04.2018 23:00:00 - 19.04.2018 23:00:00 (CEST)Torino/Caselle, Italië (16059): luchtdruk: 13.04.2018 23:00:00 - 19.04.2018 23:00:00 (CEST)Torino/Caselle, Italië (16059): zicht: 13.04.2018 23:00:00 - 19.04.2018 23:00:00 (CEST)Torino/Caselle, Italië (16059): neerslag: 13.04.2018 23:00:00 - 19.04.2018 23:00:00 (CEST)
Datum & Tijd tt [°C] td [°C] ff [km/u] ff [kn] dd ppp [hPa] vv [km] rr [mm]
19.04.2018 23:00:00 18,1 10,3 9 5 NNW 1027,6 25 0,0
19.04.2018 22:00:00 19,0 11,0 11 6 N - 10 -
19.04.2018 21:00:00 19,0 11,0 9 5 NO - 10 -
19.04.2018 20:00:00 21,0 10,9 11 6 O 1026,2 25 -
19.04.2018 19:00:00 24,0 11,0 8 4 O - 10 -
19.04.2018 18:00:00 25,0 9,0 5 3 O - 10 -
19.04.2018 17:00:00 24,5 9,6 8 4 O 1026,6 10 0,0
19.04.2018 16:00:00 24,0 8,0 4 2 - - 10 -
19.04.2018 15:00:00 24,0 8,0 5 3 Z - 10 -
19.04.2018 14:00:00 22,8 8,0 4 2 - 1028,5 10 -
19.04.2018 13:00:00 22,0 7,0 4 2 - - 10 -
19.04.2018 12:00:00 21,0 8,0 5 3 - - 10 -
19.04.2018 11:00:00 19,2 8,3 8 4 ZZO 1030,0 10 0,0
19.04.2018 10:00:00 18,0 8,0 5 3 - - 10 -
19.04.2018 09:00:00 17,0 6,0 4 2 - - 10 -
19.04.2018 08:00:00 13,7 7,7 4 2 N 1029,6 35 -
19.04.2018 07:00:00 13,0 6,0 5 3 WNW - 10 -
19.04.2018 06:00:00 12,0 6,0 2 1 - - 10 -
19.04.2018 05:00:00 11,7 6,2 2 1 N 1029,4 15 0,0
19.04.2018 04:00:00 12,0 8,0 4 2 - - 10 -
19.04.2018 03:00:00 14,0 7,0 4 2 - - 10 -
19.04.2018 02:00:00 14,2 7,4 13 7 NW 1029,8 10 -
19.04.2018 01:00:00 17,0 8,0 9 5 NW - 10 -
19.04.2018 00:00:00 18,0 8,0 9 5 NNW - 10 -
18.04.2018 23:00:00 16,0 9,1 8 4 NNW 1029,3 10 0,0
18.04.2018 22:00:00 19,0 8,0 2 1 - - 10 -
18.04.2018 21:00:00 21,0 7,0 8 4 WNW - 10 -
18.04.2018 20:00:00 21,4 7,7 5 3 O 1027,9 10 -
18.04.2018 19:00:00 23,0 9,0 9 5 O - 10 -
18.04.2018 18:00:00 24,0 11,0 9 5 O - 10 -
18.04.2018 17:00:00 24,2 10,2 4 2 - 1027,8 10 0,0
18.04.2018 16:00:00 24,0 11,0 5 3 - - 10 -
18.04.2018 15:00:00 24,0 10,0 5 3 - - 10 -
18.04.2018 14:00:00 23,1 9,9 5 3 - 1028,7 10 -
18.04.2018 13:00:00 22,0 10,0 9 5 O - 10 -
18.04.2018 12:00:00 21,0 11,0 8 4 ZO - 10 -
18.04.2018 11:00:00 20,2 11,2 9 5 OZO 1029,3 10 0,0
18.04.2018 10:00:00 19,0 11,0 5 3 ZO - 10 -
18.04.2018 09:00:00 16,0 10,0 4 2 - - 10 -
18.04.2018 08:00:00 16,1 10,6 2 1 - 1028,4 10 -
18.04.2018 07:00:00 14,0 9,0 2 1 - - 10 -
18.04.2018 06:00:00 15,0 8,0 4 2 - - 10 -
18.04.2018 05:00:00 15,8 7,8 13 7 NW 1027,2 10 0,0
18.04.2018 04:00:00 - - - - - - - -
18.04.2018 03:00:00 16,0 9,0 11 6 NW - 10 -
18.04.2018 02:00:00 15,6 9,1 9 5 NW 1027,1 10 -
18.04.2018 01:00:00 15,0 9,0 11 6 N - 10 -
18.04.2018 00:00:00 16,0 9,0 13 7 N - 10 -
17.04.2018 23:00:00 16,9 9,1 13 7 NNW 1025,2 10 0,0
17.04.2018 22:00:00 - - - - - - - -
17.04.2018 21:00:00 22,0 7,0 2 1 O - 10 -
17.04.2018 20:00:00 21,9 8,2 5 3 O 1022,4 10 -
17.04.2018 19:00:00 23,0 10,0 8 4 O - 10 -
17.04.2018 18:00:00 24,0 8,0 5 3 NO - 10 -
17.04.2018 17:00:00 23,9 9,0 8 4 O 1021,6 10 0,0
17.04.2018 16:00:00 24,0 7,0 9 5 ONO - 10 -
17.04.2018 15:00:00 23,0 10,0 8 4 ONO - 10 -
17.04.2018 14:00:00 22,8 9,5 5 3 N 1022,0 15 -
17.04.2018 13:00:00 22,0 9,0 11 6 OZO - 10 -
17.04.2018 12:00:00 21,0 9,0 8 4 OZO - 10 -
17.04.2018 11:00:00 19,4 7,8 8 4 ZZO 1022,2 10 0,0
17.04.2018 10:00:00 19,0 9,0 8 4 ZZW - 10 -
17.04.2018 09:00:00 17,0 8,0 5 3 WNW - 10 -
17.04.2018 08:00:00 13,7 7,1 8 4 WNW 1020,3 10 -
17.04.2018 07:00:00 12,0 6,0 8 4 NW - 10 -
17.04.2018 06:00:00 11,0 6,0 5 3 N - 10 -
17.04.2018 05:00:00 12,4 6,4 2 1 - 1018,1 10 0,0
17.04.2018 04:00:00 12,0 6,0 2 1 - - 10 -
17.04.2018 03:00:00 15,0 6,0 5 3 NW - 10 -
17.04.2018 02:00:00 14,8 6,0 11 6 WNW 1016,6 10 -
17.04.2018 01:00:00 15,0 6,0 9 5 NNW - 10 -
17.04.2018 00:00:00 16,0 7,0 11 6 NNW - 10 -
16.04.2018 23:00:00 16,5 7,6 5 3 N 1014,9 10 0,0
16.04.2018 22:00:00 18,0 9,0 5 3 WNW - 10 -
16.04.2018 21:00:00 18,0 9,0 5 3 - - 10 -
16.04.2018 20:00:00 21,6 7,5 8 4 WZW 1012,2 10 -
16.04.2018 19:00:00 23,0 7,0 9 5 ZW - 10 -
16.04.2018 18:00:00 23,0 9,0 8 4 Z - 10 -
16.04.2018 17:00:00 23,1 8,2 5 3 OZO 1011,0 10 0,0
16.04.2018 16:00:00 23,0 7,0 8 4 OZO - 10 -
16.04.2018 15:00:00 21,0 8,0 9 5 Z - 10 -
16.04.2018 14:00:00 20,9 8,2 9 5 Z 1011,7 10 -
16.04.2018 13:00:00 20,0 8,0 4 2 - - 10 -
16.04.2018 12:00:00 18,0 8,0 4 2 - - 10 -
16.04.2018 11:00:00 17,5 8,9 4 2 - 1012,4 10 0,0
16.04.2018 10:00:00 15,0 7,0 4 2 - - 10 -
16.04.2018 09:00:00 12,0 7,0 4 2 - - 10 -
16.04.2018 08:00:00 9,5 5,9 5 3 W 1011,7 10 -
16.04.2018 07:00:00 9,0 6,0 8 4 NW - 10 -
16.04.2018 06:00:00 9,0 6,0 5 3 NNW - 10 -
16.04.2018 05:00:00 9,3 6,5 4 2 - 1010,6 10 0,0
16.04.2018 04:00:00 11,0 6,0 11 6 WNW - 10 -
16.04.2018 03:00:00 11,0 7,0 13 7 W - 10 -
16.04.2018 02:00:00 11,5 6,9 9 5 WNW 1011,2 10 -
16.04.2018 01:00:00 13,0 8,0 9 5 NW - 10 -
16.04.2018 00:00:00 13,0 9,0 11 6 WNW - 10 -
15.04.2018 23:00:00 13,8 8,9 5 3 NW 1012,0 10 0,0
15.04.2018 22:00:00 13,0 9,0 11 6 N - 10 -
15.04.2018 21:00:00 14,0 9,0 13 7 NNW - 10 -
15.04.2018 20:00:00 15,2 8,4 16 9 NW 1011,6 10 -
15.04.2018 19:00:00 16,0 7,0 24 13 NW - 10 -
15.04.2018 18:00:00 16,0 7,0 21 11 WNW - 10 -
15.04.2018 17:00:00 16,1 8,4 21 11 WZW 1011,3 10 0,0
15.04.2018 16:00:00 16,0 9,0 21 11 ZW - 10 -
15.04.2018 15:00:00 18,0 9,0 8 4 Z - 10 -
15.04.2018 14:00:00 16,0 9,4 8 4 Z 1013,0 10 -
15.04.2018 13:00:00 15,0 8,0 15 8 W - 10 -
15.04.2018 12:00:00 14,0 8,0 5 3 ZO - 10 -
15.04.2018 11:00:00 14,2 7,4 2 1 - 1014,4 10 0,0
15.04.2018 10:00:00 13,0 7,0 5 3 ZW - 10 -
15.04.2018 09:00:00 12,0 4,0 5 3 Z - 10 -
15.04.2018 08:00:00 11,3 2,9 9 5 WNW 1015,2 10 -
15.04.2018 07:00:00 9,0 4,0 4 2 - - 10 -
15.04.2018 06:00:00 10,0 3,0 2 1 - - 10 -
15.04.2018 05:00:00 10,4 3,9 11 6 WNW 1015,8 10 0,0
15.04.2018 04:00:00 11,0 5,0 4 2 - - 10 -
15.04.2018 03:00:00 10,0 6,0 4 2 ZZO - 10 -
15.04.2018 02:00:00 11,2 4,1 8 4 NNW 1018,2 10 -
15.04.2018 01:00:00 11,0 7,0 4 2 - - 10 -
15.04.2018 00:00:00 11,0 7,0 5 3 WNW - 10 -
14.04.2018 23:00:00 13,9 7,2 5 3 WNW 1018,8 10 0,0
14.04.2018 22:00:00 15,0 7,0 9 5 WNW - 10 -
14.04.2018 21:00:00 15,0 7,0 4 2 Z - 10 -
14.04.2018 20:00:00 17,0 6,0 2 1 - 1019,2 10 -
14.04.2018 19:00:00 17,0 6,0 4 2 - - 10 -
14.04.2018 18:00:00 18,0 7,0 4 2 - - 10 -
14.04.2018 17:00:00 17,5 6,4 5 3 ZZO 1019,6 10 0,0
14.04.2018 16:00:00 18,0 6,0 5 3 ZZO - 10 -
14.04.2018 15:00:00 17,0 6,0 8 4 O - 10 -
14.04.2018 14:00:00 17,0 6,7 4 2 - 1021,3 10 -
14.04.2018 13:00:00 17,0 8,0 5 3 - - 10 -
14.04.2018 12:00:00 16,0 7,0 5 3 - - 10 -
14.04.2018 11:00:00 15,0 7,8 4 2 - 1021,9 25 0,0
14.04.2018 10:00:00 13,0 8,0 5 3 Z - 10 -
14.04.2018 09:00:00 11,0 7,0 4 2 - - 10 -
14.04.2018 08:00:00 10,1 7,1 4 2 - 1022,3 10 -
14.04.2018 07:00:00 10,0 7,0 5 3 W - 10 -
14.04.2018 06:00:00 10,0 7,0 2 1 WNW - 10 -
14.04.2018 05:00:00 10,3 7,2 4 2 - 1021,3 10 0,0
14.04.2018 04:00:00 11,0 7,0 9 5 NW - 10 -
14.04.2018 03:00:00 10,0 8,0 8 4 N - 10 -
14.04.2018 02:00:00 11,0 7,9 9 5 NW 1021,1 10 -
14.04.2018 01:00:00 11,0 9,0 9 5 NNW - 10 -
14.04.2018 00:00:00 11,0 9,0 8 4 NNO - 10 -
13.04.2018 23:00:00 11,6 7,7 4 2 - 1020,0 5 0,0

tt = temperatuur
td = dauwpunt
ff = windsnelheid
dd = windrichting
ppp = luchtdruk
vv = zicht
rr = neerslag

Weerstations in de omgeving